JCSAT-5A

Last updated on Nov. 19, 2019, 4:25 a.m. UTC

1 29045U 06010A   19321.88412083 -.00000322  00000-0  00000-0 0  9995
2 29045   0.0489 111.9524 0001926 128.1054 266.9549  1.00271025 49669
UTC
Height (km)
Latitude
Longitude
Inclination
Orbital Period
UTC large
Height (km)
Speed (km/s)
/
Latitude / Longitude
Inclination (degrees)
Orbital Period (minutes)
Azimuth
Elevation
Range (km)
Doppler Factor
iOS Compass Heading
iOS Angle

Next 30 passes for location: Hong Kong

Rise time Rise Azimuth (degrees) Set time Set Azimuth (degrees) Duration Max altitude (degrees)

No matching passes for this satellites